Starlink 5505

decayed
NORAD ID: 57259 Int'l Des: 2023-094 Owner: SPXS Country: US Constellation: starlink
LEOCIRCULAR
グループ

Starlink 5505について

説明を読み込み中...

高度履歴

Altitude vs Time

uPlot chart will show altitude changes over time

軌道要素

1 57259U 23094AT 24061.13830567 .03349843 90977-5 52770-3 0 9997
2 57259 42.9758 319.2250 0013112 240.7276 249.3591 16.32557547 37629
Epoch: Mar 1, 2024 • Age: 17855 hours

現在のステータス

Position data unavailable
打ち上げ日 Jul 7, 2023
運用期間 2.6 years
落下予定日 Mar 2, 2024
タイプ internet

技術仕様

分類 Payload
質量 305.00 kg
乾燥質量 290.00 kg
総質量 305.00 kg
長さ 0.20 m
直径 2.80 m
スパン 9.00 m
形状 Box + pan
製造者 SPXS
バスタイプ Starlink
フェーズステータス Reentered
所有者/国 SPXS/US

大規模コンステレーション

Loading constellations...